Showing default

HERMES-6, 63489

Orbit data source: Space-Track

HERMES-6, 63489 is a payload satellite owned by ASI (IT) in SSO that was launched on Sat, 15 Mar 2025 UTC via an FALCON 9 launch vehicle from the Air Force Western Test Range (AFWTR). Payload-class satellites include a variety of spacecraft equipped with specific instruments for various scientific and technological missions. These include communications satellites like Starlink; space stations such as the ISS; scientific satellites like the Hubble; Earth observation satellites from companies like Planet Labs, Umbra, and HawkEye 360; GPS; miniature CubeSats for education and research; and military/defense satellites.

Loading next visibility...
Identifier
63489, 2025-052BK
Orbit
SSO
Country
Flag of ITIT
Related business
Manufacturer
MILANP/INAFI
Mission
Operational Civil Astronomy
Bus & Motor
CUBESAT 3U, Unknown motor
Mass
5 kg wet, 5 kg dry
Launch date (UTC)
2025-03-15 (2 years ago)
Launch vehicle
FALCON 9
Launch site
Air Force Western Test Range (AFWTR)
Object type
Payload
Rocket body
Debris
Shape & HBR
Box, 0.2 m
Radar Cross Section
0.035 m², Medium (>0.1 m² and < 1m²)

Expand to show TLE details & history
Last TLE update: 9 hours ago

TLE from 9 hours ago
0 HERMES-6
1 63489U 25052BK  26264.94900755  .00003184  00000-0  13439-3 0  9992
2 63489  97.3854 156.0306 0006000 173.1379 186.9941 15.23986767 84561
Epoch: 2026-09-21T22:46Z
TLE epoch observation values (Epoch: 2026-09-21T22:46:34.252Z)
Latitude
-0.00007°
Longitude
173.56639°
Altitude
501.019 km
Speed
7.612 km/s
True Right ascension
10h 24m 07s
True Declination
0° 00' 00"
Sunlit
Object was in daylight at epoch
Visualization orbit readout
Latitude
Unknown
Longitude
Unknown
Altitude
Unknown
Speed
Unknown
Apparent Right ascension
Unknown
Apparent Declination
Unknown
Sunlit
N/A
Visualization observer readout
Local Sidereal Time
00:34:51
Azimuth
Unknown
Elevation
Unknown
Doppler factor
Unknown
Orbital elements
Apogee altitude
494.911 km
Perigee altitude
486.668 km
Semi-major axis
6,868.926 km
Eccentricity
0.0006
Inclination
97.3854°
RAAN
156.0306°
Arg. of periapsis
173.1379°
True anomaly
186.98573°
Mean anomaly
186.9941°
Eccentric anomaly
186.98992°
Mean motion
3.8125 °/min
Orbital period
94.43 mins
BSTAR
0.00013439
Loading maneuver chart data...
Computing Atmospheric mass density...
Loading historical data...
Loading historical data...
Loading historical data...
Loading historical data...
Loading historical data...
Loading historical data...
Loading historical data...

Documentation

Showing up to 5 results
|